Vorticity
12 -1 4 9 9 12 6 5 5 4 11 11 8 7 51 6 13 10 14 12 5 -2 -5 49 3 -8 33 7 11 65 43 24 2 11 9 7 8 7 7 7 6 9 5 3
5 1 9 14 8 9 7 9 9 11 26 14 9 10 19 17 13 18 22 13 13 9 7 37 10 -6 28 31 -36 74 33 -15 10 13 10 8 8 7 7 7 7 8 5 2
8 -13 -11 2 3 7 11 7 2 4 -7 3 31 20 6 6 6 -1 3 17 17 -2 22 39 21 -6 15 1 18 34 6 -2 -3 12 11 9 11 9 8 6 6 8 4 -0
26 29 8 8 5 11 5 25 27 13 25 4 38 28 28 20 13 -2 15 25 14 34 26 23 23 -6 19 13 23 -10 8 -19 5 6 8 9 8 11 9 8 7 6 4 2
7 6 10 5 14 27 -1 13 -5 18 14 3 32 -10 39 6 3 21 22 7 18 2 11 11 19 6 3 35 -31 62 -13 -32 6 10 7 11 10 17 14 10 8 6 6 4
13 14 10 2 10 25 16 10 14 18 -16 14 32 -40 11 31 -2 9 14 13 10 20 7 -9 22 18 3 31 -25 49 13 -19 -12 -7 -4 2 4 13 17 4 8 7 6 5
11 15 -3 32 5 24 7 25 27 17 20 17 4 7 -0 21 8 13 6 16 15 8 -1 2 25 14 6 7 15 30 38 0 24 -38 8 -1 4 2 4 11 10 10 9 9
3 20 12 13 17 8 10 11 11 2 12 11 14 1 -2 20 22 10 13 5 13 10 14 20 23 18 3 10 19 -19 -33 47 -61 20 12 20 -4 6 4 7 9 9 13 17
9 9 6 13 4 23 -6 18 5 26 2 2 13 37 -66 26 23 26 -7 23 28 19 34 42 41 13 -2 8 30 -24 21 -12 15 -7 22 -27 26 -12 11 7 6 4 6 10
-1 13 0 5 4 10 19 13 13 6 7 11 1 -21 -5 18 13 18 18 13 37 32 2 18 19 6 -1 -7 38 -7 10 6 39 54 -81 48 -35 44 13 14 4 11 -12 17
15 16 -5 19 3 18 8 7 20 13 20 4 11 -22 19 17 5 13 10 -4 33 37 33 17 10 11 12 17 14 -7 15 58 36 44 25 17 12 30 41 26 37 78 29 7
4 13 11 6 -8 11 15 26 27 19 1 -3 21 -26 13 12 15 18 36 12 -9 16 42 19 23 18 15 8 3 47 23 21 21 15 43 21 11 8 14 12 17 20 32 105
20 -4 17 10 -1 -6 16 37 15 -1 20 19 24 -2 13 12 3 9 7 47 -13 11 14 32 13 0 9 18 18 15 11 3 8 20 5 5 2 5 4 6 6 3 5 10
5 13 20 19 12 12 10 30 39 17 -4 9 18 7 6 4 9 8 5 2 32 -12 -1 12 18 27 3 6 7 6 6 8 7 12 9 10 7 6 6 6 7 4 7 4
10 4 11 12 8 6 11 12 12 11 21 13 5 3 7 5 6 5 11 11 2 4 48 -12 2 3 15 17 4 2 5 3 8 -0 5 5 6 9 8 9 9 7 8 6
-1 15 9 -1 -3 1 1 13 6 1 1 -1 -1 1 2 7 9 6 6 9 14 10 4 1 21 14 7 2 0 17 10 -1 4 3 7 6 3 4 12 11 10 9 8 8
2 3 13 7 -3 6 -21 3 9 8 8 24 2 9 7 6 4 4 6 7 6 9 13 11 8 12 10 2 3 7 8 9 5 6 2 4 5 4 11 12 13 12 10 11
13 3 7 11 10 7 16 16 4 7 4 6 5 3 6 6 4 10 11 4 4 6 6 7 12 12 9 13 7 8 9 11 10 8 10 12 7 5 8 9 10 10 8 8
13 6 8 9 26 8 15 6 -4 8 2 3 6 5 7 12 9 7 7 10 11 10 6 6 5 6 12 15 12 14 11 7 12 11 8 6 6 4 2 4 2 4 4 6
7 11 8 6 10 12 15 16 3 5 6 8 6 7 8 4 -0 6 8 7 6 9 11 12 9 9 7 7 12 17 15 11 9 12 11 8 5 7 7 6 4 5 6 4
10 9 9 10 13 10 11 14 10 -0 14 6 7 8 9 11 8 8 9 10 9 9 6 9 12 10 9 9 7 8 8 10 14 14 13 12 10 9 8 8 8 5 6 10
5 9 9 7 12 8 7 7 -3 17 11 5 4 5 5 6 6 5 5 7 10 11 11 11 10 9 13 11 10 10 10 13 13 13 13 14 14 15 16 15 14 14 15 15
15 2 4 2 5 24 8 11 10 10 5 4 6 6 7 8 7 7 8 9 9 7 9 10 11 13 14 12 9 10 14 11 8 12 13 13 12 14 14 14 13 12 12 12
12 9 6 5 15 13 7 9 9 7 6 5 8 8 8 7 8 8 9 9 9 9 9 10 10 10 10 11 14 18 8 9 10 -2 6 4 13 12 9 8 10 9 9 8
14 18 15 4 11 7 6 6 5 6 7 7 6 3 3 4 11 9 4 6 9 10 8 7 6 4 4 6 5 6 10 15 -1 4 8 15 31 13 8 9 11 8 7 9
21 9 11 15 9 6 11 7 8 7 4 7 6 6 5 7 6 5 4 4 5 8 7 7 7 7 5 4 6 7 7 8 8 9 20 18 23 5 -3 7 21 34 28 21
Height
3022 3021 3018 3018 3018 3016 3014 3011 3005 3001 3001 3000 2995 2991 2987 2991 2992 2992 2996 3000 3003 3005 3008 3011 3021 3029 3033 3039 3040 3043 3054 3063 3080 3086 3092 3098 3104 3112 3119 3126 3132 3138 3142 3147
3020 3014 3015 3015 3014 3012 3010 3006 2997 2995 2996 2995 2990 2984 2985 2985 2986 2987 2990 2993 2995 3000 3001 3004 3015 3022 3029 3031 3037 3034 3050 3063 3075 3084 3091 3098 3104 3112 3118 3124 3131 3136 3141 3145
3016 3012 3011 3009 3008 3006 3003 3001 2993 2993 2989 2987 2983 2977 2978 2981 2983 2985 2985 2988 2991 2996 2995 3000 3011 3018 3024 3030 3035 3043 3049 3061 3071 3080 3087 3094 3102 3109 3114 3120 3127 3133 3136 3140
3010 3007 3006 3005 3001 3002 2995 2993 2987 2985 2986 2981 2979 2970 2971 2976 2978 2981 2982 2982 2987 2989 2992 2998 3006 3013 3018 3025 3035 3043 3052 3058 3068 3075 3082 3089 3098 3105 3112 3119 3124 3129 3133 3138
3008 3004 3004 3002 2998 2995 2988 2986 2984 2982 2978 2979 2975 2976 2971 2974 2975 2976 2977 2978 2982 2985 2992 2996 3002 3011 3018 3025 3036 3041 3043 3050 3062 3071 3079 3088 3095 3103 3110 3116 3121 3125 3130 3135
3003 3003 3002 2998 2994 2991 2985 2979 2976 2977 2977 2973 2970 2974 2970 2972 2972 2974 2977 2978 2978 2980 2986 2994 2999 3007 3015 3023 3033 3036 3043 3036 3056 3066 3075 3082 3090 3098 3104 3110 3115 3120 3126 3130
3004 3001 2999 2995 2992 2988 2984 2976 2966 2966 2974 2966 2965 2969 2974 2970 2968 2969 2973 2973 2975 2979 2982 2989 2995 3005 3013 3021 3028 3032 3036 3041 3049 3060 3071 3079 3085 3093 3099 3106 3110 3116 3121 3125
3006 3001 2998 2995 2992 2989 2983 2977 2971 2967 2965 2969 2970 2974 2975 2971 2969 2969 2974 2975 2974 2973 2977 2983 2991 3003 3014 3021 3027 3033 3036 3029 3045 3050 3067 3074 3080 3086 3092 3098 3106 3110 3114 3119
3008 3002 2998 2996 2992 2991 2985 2979 2977 2973 2972 2972 2977 2977 2973 2972 2969 2969 2970 2972 2971 2971 2974 2979 2989 3002 3014 3021 3027 3033 3036 3042 3046 3054 3058 3065 3074 3082 3088 3093 3099 3103 3108 3112
3010 3005 3000 2997 2995 2993 2990 2985 2980 2976 2973 2973 2976 2976 2978 2973 2970 2970 2970 2972 2972 2971 2974 2983 2994 3005 3014 3023 3029 3037 3041 3046 3048 3050 3057 3063 3066 3074 3079 3083 3089 3095 3101 3105
3010 3008 3004 3000 2997 2994 2992 2989 2985 2984 2982 2978 2978 2987 2983 2981 2980 2977 2976 2975 2973 2972 2979 2988 2995 3007 3015 3022 3029 3036 3040 3041 3043 3050 3055 3059 3065 3069 3073 3081 3081 3086 3091 3096
3011 3010 3007 3004 3001 2997 2994 2994 2991 2989 2991 2989 2989 2995 2992 2989 2983 2981 2979 2982 2982 2982 2982 2987 2996 3007 3015 3023 3028 3034 3038 3041 3044 3048 3053 3059 3064 3068 3071 3075 3078 3085 3087 3086
3013 3013 3010 3004 3006 3004 2998 2996 2993 2994 2994 2994 2992 3003 3002 2995 2991 2991 2991 2990 2990 2991 2992 2995 3002 3010 3018 3024 3029 3037 3040 3044 3048 3051 3058 3063 3066 3068 3071 3074 3078 3081 3085 3089
3016 3016 3015 3015 3014 3010 3007 3002 2998 2998 3000 3005 3005 3007 3006 3004 3004 3003 3002 3001 3001 3000 3001 3006 3010 3017 3025 3028 3033 3038 3042 3045 3050 3055 3060 3064 3067 3070 3072 3075 3079 3081 3084 3087
3019 3019 3019 3018 3016 3014 3013 3012 3009 3007 3010 3010 3014 3012 3016 3016 3014 3013 3012 3015 3017 3010 3008 3013 3015 3019 3027 3032 3038 3041 3043 3047 3052 3058 3062 3065 3068 3070 3072 3075 3077 3079 3082 3086
3020 3023 3022 3021 3021 3020 3017 3016 3016 3016 3018 3018 3020 3021 3023 3022 3021 3020 3019 3021 3019 3022 3026 3025 3024 3027 3032 3036 3041 3044 3048 3050 3054 3059 3061 3065 3068 3069 3071 3072 3075 3077 3080 3084
3022 3023 3024 3025 3024 3022 3024 3022 3022 3021 3022 3023 3025 3027 3026 3026 3026 3026 3026 3026 3027 3028 3029 3031 3032 3034 3038 3040 3041 3046 3050 3052 3055 3059 3062 3063 3065 3066 3068 3068 3071 3074 3077 3079
3024 3025 3024 3024 3023 3023 3028 3026 3025 3025 3024 3025 3026 3027 3027 3027 3027 3028 3030 3031 3031 3032 3034 3035 3037 3041 3041 3041 3042 3048 3050 3053 3056 3059 3060 3060 3062 3063 3065 3067 3069 3070 3073 3075
3026 3027 3028 3027 3025 3029 3029 3029 3029 3028 3028 3026 3026 3027 3028 3029 3029 3029 3029 3030 3031 3032 3034 3034 3036 3037 3037 3040 3043 3046 3049 3052 3055 3057 3056 3057 3059 3060 3062 3065 3066 3066 3069 3070
3027 3027 3029 3028 3029 3028 3029 3028 3029 3030 3032 3030 3029 3029 3029 3030 3031 3030 3030 3031 3032 3032 3033 3035 3036 3037 3037 3041 3044 3045 3048 3048 3049 3050 3051 3052 3053 3054 3055 3059 3058 3060 3062 3063
3027 3027 3029 3029 3029 3030 3030 3031 3032 3034 3037 3031 3032 3033 3033 3033 3033 3033 3034 3034 3033 3033 3034 3035 3036 3037 3037 3039 3040 3043 3045 3044 3045 3045 3045 3045 3046 3047 3048 3051 3052 3054 3054 3056
3028 3029 3030 3030 3029 3032 3031 3033 3034 3034 3033 3034 3034 3034 3035 3035 3035 3034 3034 3033 3034 3033 3032 3033 3033 3034 3034 3035 3037 3037 3037 3037 3038 3039 3038 3038 3039 3040 3041 3041 3043 3045 3046 3049
3028 3029 3030 3030 3029 3029 3030 3032 3032 3033 3034 3035 3035 3035 3035 3035 3035 3034 3033 3032 3032 3031 3031 3032 3031 3030 3030 3030 3029 3028 3028 3031 3033 3031 3029 3032 3035 3035 3035 3036 3037 3040 3040 3042
3026 3027 3028 3029 3028 3028 3030 3031 3032 3033 3034 3034 3035 3035 3035 3035 3035 3034 3034 3034 3033 3032 3032 3031 3030 3028 3027 3026 3024 3024 3026 3027 3027 3026 3027 3027 3027 3031 3032 3033 3033 3034 3036 3036
3025 3026 3027 3028 3028 3029 3030 3031 3032 3033 3033 3034 3034 3034 3035 3034 3034 3033 3032 3032 3031 3031 3030 3030 3029 3028 3028 3028 3026 3025 3024 3022 3022 3022 3024 3023 3024 3026 3025 3025 3027 3026 3027 3028
3023 3024 3025 3026 3027 3029 3030 3030 3031 3032 3033 3034 3034 3034 3034 3033 3033 3032 3032 3031 3030 3029 3028 3027 3027 3026 3025 3023 3022 3021 3020 3021 3021 3019 3019 3019 3019 3019 3018 3018 3017 3015 3016 3015